DW9665 Sarajevo BA current weather conditions

sailwx.info

Wind from 112 at 0 knots gusting 2

Air temperature 12.8° C
Dewpoint 9.8° C

Last reported at 2014-Sep-16 03:47 UTC.
Time now 2014-Sep-16 05:00 UTC

Location: N 43°50' E 018°21'.
View on Google Maps.

See reports from other nearby stations

  
Tides and Currents Weather Stations Pressure Air Temp Water Temp Dewpoint Dewpoint Depression Visibility Wind Speed Wind Dir Waves Ship Positions
date/time (UTC)wind fromknots sea level pressurealtimeterstation pressurevisibilityair tempwater tempwave heightnotes
2014-Sep-16 03:47 112 0 gusting 2 12.8
2014-Sep-16 03:32 112 12.8
2014-Sep-16 03:17 068 12.8
2014-Sep-16 03:02 135 0 gusting 2 12.8
2014-Sep-16 02:47 090 12.8
2014-Sep-16 02:32 112 12.8
2014-Sep-16 02:17 135 12.8
2014-Sep-16 02:02 270 0 gusting 2 12.8
2014-Sep-16 01:47 180 12.8
2014-Sep-16 01:32 180 12.8
2014-Sep-16 01:17 270 0 gusting 2 12.8
2014-Sep-16 01:02 158 0 gusting 3 12.8
2014-Sep-16 00:47 180 12.8
2014-Sep-16 00:32 135 2 gusting 1 12.8
2014-Sep-16 00:17 022 12.8
2014-Sep-16 00:02 292 12.8
2014-Sep-15 23:47 270 12.8
2014-Sep-15 23:32 180 12.8
2014-Sep-15 23:17 112 12.8
2014-Sep-15 23:02 068 12.8
2014-Sep-15 22:47 270 13.3
2014-Sep-15 22:32 180 13.3
2014-Sep-15 22:17 112 13.3
2014-Sep-15 22:02 180 13.3
2014-Sep-15 21:47 158 13.3
2014-Sep-15 21:32 270 13.3
2014-Sep-15 21:17 180 13.3
2014-Sep-15 21:02 338 13.9
2014-Sep-15 20:47 135 13.9
2014-Sep-15 20:32 338 13.9
2014-Sep-15 20:17 270 1 gusting 1 14.4
2014-Sep-15 20:02 180 14.4
2014-Sep-15 19:47 338 15.0
2014-Sep-15 19:32 090 15.0
2014-Sep-15 19:17 270 15.0
2014-Sep-15 19:02 022 1 gusting 4 15.0
2014-Sep-15 18:47 338 0 gusting 3 15.0
2014-Sep-15 18:32 315 1 gusting 3 15.0
2014-Sep-15 18:17 022 15.0
2014-Sep-15 18:02 292 2 gusting 5 15.6
2014-Sep-15 17:47 270 2 gusting 6 15.6
2014-Sep-15 17:32 270 3 gusting 6 15.6
2014-Sep-15 17:17 045 1 gusting 7 16.1
2014-Sep-15 17:02 180 4 gusting 7 16.7
2014-Sep-15 16:47 270 4 gusting 6 17.2
2014-Sep-15 16:32 292 2 gusting 8 17.8
2014-Sep-15 16:17 270 4 gusting 7 18.3
2014-Sep-15 16:02 292 4 gusting 6 18.3
2014-Sep-15 15:47 292 2 gusting 6 18.3
2014-Sep-15 15:32 112 3 gusting 7 17.8
2014-Sep-15 15:17 292 2 gusting 8 18.3
2014-Sep-15 15:02 022 4 gusting 6 18.9
2014-Sep-15 14:47 180 0 gusting 6 19.4
2014-Sep-15 14:32 270 3 gusting 5 18.9
2014-Sep-15 14:17 338 1 gusting 8 18.9
2014-Sep-15 14:02 292 5 gusting 8 18.9
2014-Sep-15 13:47 292 1 gusting 6 19.4
2014-Sep-15 13:32 338 1 gusting 3 18.9
2014-Sep-15 13:17 045 1 gusting 6 18.3
2014-Sep-15 13:02 338 2 gusting 9 18.3
2014-Sep-15 12:47 045 7 gusting 11 19.4
2014-Sep-15 12:32 045 20.6
2014-Sep-15 12:17 135 0 gusting 5 19.4
2014-Sep-15 12:02 270 2 gusting 8 18.9
2014-Sep-15 11:47 292 6 gusting 5 20.0
2014-Sep-15 11:32 270 2 gusting 5 19.4
2014-Sep-15 11:17 180 1 gusting 6 18.9
2014-Sep-15 11:02 270 2 gusting 3 18.3
2014-Sep-15 10:47 270 1 gusting 6 17.2
2014-Sep-15 10:32 135 3 gusting 5 17.2
2014-Sep-15 10:17 270 2 gusting 5 16.7
2014-Sep-15 10:02 270 3 gusting 3 16.7
2014-Sep-15 09:47 270 1 gusting 3 16.7
2014-Sep-15 09:32 270 1 gusting 2 16.7
2014-Sep-15 09:17 270 0 gusting 2 16.1
2014-Sep-15 09:02 112 15.0
2014-Sep-15 07:47 270 0 gusting 6 13.9
2014-Sep-15 07:32 338 5 gusting 2 14.4
2014-Sep-15 07:17 270 0 gusting 4 14.4
2014-Sep-15 07:02 270 3 gusting 4 14.4
2014-Sep-15 06:47 270 1 gusting 4 14.4
2014-Sep-15 06:32 292 3 gusting 3 13.9
2014-Sep-15 06:17 022 0 gusting 3 13.9
2014-Sep-15 06:02 270 14.4
2014-Sep-15 05:47 180 13.9
2014-Sep-15 05:32 270 13.9
2014-Sep-15 05:17 180 13.9
2014-Sep-15 05:02 180 13.9
2014-Sep-15 04:47 135 13.9
2014-Sep-15 04:32 292 13.9
2014-Sep-15 04:17 270 0 gusting 2 13.3
2014-Sep-15 04:02 270 0 gusting 1 13.3
2014-Sep-15 03:47 180 13.3
2014-Sep-15 03:32 292 0 gusting 2 13.3
2014-Sep-15 03:17 180 13.3
2014-Sep-15 03:02 270 13.3
2014-Sep-15 02:47 270 13.9
2014-Sep-15 02:32 270 13.9
2014-Sep-15 02:17 270 13.9
2014-Sep-15 02:02 315 13.9
2014-Sep-15 01:47 270 0 gusting 4 13.9
2014-Sep-15 01:32 292 2 gusting 3 13.9
2014-Sep-15 01:17 270 1 13.9
2014-Sep-15 01:02 180 13.9
2014-Sep-15 00:47 180 13.9
2014-Sep-15 00:32 292 0 gusting 3 13.9
2014-Sep-15 00:17 270 0 gusting 2 13.9
2014-Sep-15 00:02 270 0 14.4
2014-Sep-14 23:47 090 14.4
2014-Sep-14 23:32 135 14.4
2014-Sep-14 23:17 270 14.4
2014-Sep-14 23:02 270 0 gusting 2 14.4
2014-Sep-14 22:47 135 14.4
2014-Sep-14 22:32 292 0 gusting 2 14.4
2014-Sep-14 22:17 292 0 gusting 3 14.4
2014-Sep-14 22:02 270 0 gusting 2 14.4
2014-Sep-14 21:47 270 1 gusting 3 14.4
2014-Sep-14 21:32 180 14.4
2014-Sep-14 21:17 338 1 gusting 5 14.4
2014-Sep-14 21:02 292 2 gusting 6 14.4
2014-Sep-14 20:47 292 1 gusting 8 15.0
2014-Sep-14 20:32 270 2 gusting 6 14.4
2014-Sep-14 20:17 292 3 gusting 5 14.4
2014-Sep-14 20:02 270 3 gusting 5 15.0
2014-Sep-14 19:47 270 4 gusting 5 15.0
2014-Sep-14 19:32 292 3 gusting 5 15.0
2014-Sep-14 19:17 270 3 gusting 6 15.0
2014-Sep-14 19:02 270 2 gusting 0 15.6
2014-Sep-14 18:47 180 15.6
2014-Sep-14 18:32 270 3 gusting 3 15.6
2014-Sep-14 18:17 180 15.6
2014-Sep-14 18:02 270 0 gusting 4 15.6
2014-Sep-14 17:47 270 2 gusting 5 15.6
2014-Sep-14 17:32 292 1 gusting 8 16.1
2014-Sep-14 17:17 292 3 gusting 4 16.1
2014-Sep-14 17:02 270 1 gusting 5 16.7
2014-Sep-14 16:47 180 17.2
2014-Sep-14 16:32 180 3 gusting 11 17.2
2014-Sep-14 16:17 315 4 gusting 6 17.8
2014-Sep-14 16:02 270 18.3
2014-Sep-14 15:47 292 0 gusting 6 18.9
2014-Sep-14 15:32 18.9
2014-Sep-14 15:17 338 1 gusting 6 19.4
2014-Sep-14 15:02 270 2 gusting 6 20.0
2014-Sep-14 14:47 338 2 gusting 6 21.1
2014-Sep-14 14:32 180 21.1
2014-Sep-14 14:17 270 0 gusting 3 20.6
2014-Sep-14 14:02 022 0 gusting 3 21.1
2014-Sep-14 13:47 338 21.1
2014-Sep-14 13:32 292 21.1
2014-Sep-14 13:17 135 0 gusting 3 20.6
2014-Sep-14 13:02 270 2 gusting 4 20.6
2014-Sep-14 12:47 135 1 gusting 6 20.0
2014-Sep-14 12:32 180 5 gusting 5 20.6
2014-Sep-14 12:17 292 1 gusting 3 20.6
2014-Sep-14 12:02 045 1 gusting 2 20.0
2014-Sep-14 11:47 135 0 gusting 1 18.9
2014-Sep-14 11:32 270 0 gusting 4 18.3
2014-Sep-14 11:17 270 1 gusting 3 18.9
2014-Sep-14 11:02 135 0 gusting 5 18.9
2014-Sep-14 10:47 270 19.4
2014-Sep-14 10:32 270 1 gusting 3 18.3
2014-Sep-14 10:17 068 2 gusting 3 18.3
2014-Sep-14 10:02 090 18.3
2014-Sep-14 09:47 068 0 gusting 5 17.8
2014-Sep-14 09:32 180 2 gusting 4 17.2
2014-Sep-14 09:17 338 0 gusting 5 17.2
2014-Sep-14 09:02 158 2 gusting 5 16.7
2014-Sep-14 08:47 068 1 gusting 3 16.1
2014-Sep-14 08:32 135 0 gusting 4 15.0
2014-Sep-14 08:17 338 2 gusting 5 13.9
2014-Sep-14 08:02 270 3 gusting 5 13.9
2014-Sep-14 07:47 022 0 gusting 3 13.3
2014-Sep-14 07:32 270 0 gusting 2 13.3
2014-Sep-14 07:17 158 0 gusting 53 12.8
2014-Sep-14 06:32 068 40 gusting 3 11.7
2014-Sep-14 06:17 022 1 gusting 2 11.7
2014-Sep-14 06:02 068 11.1
2014-Sep-14 05:47 180 0 gusting 2 11.1
2014-Sep-14 05:32 270 11.1
2014-Sep-14 05:17 158 0 gusting 3 10.6
2014-Sep-14 05:02 270 1 gusting 5 10.6